Погода в Новом Комино

Россия / Республика Марий Эл     56°43′04″N   48°01′47″E
темп.,
°C
ветер,
м/с
пор.,
м/с
влажн.,
%
обл.,
%
осадки,
мм/ч
давл.,
гПа
погр.,
м
28 февраля, вс
вс2800:00−17с4109687 0.0 1007226
03:00−19с4109563 0.0 1009215
06:00−21с499736 0.0 1010187
09:00−18с479447 0.0 1010263
12:00−15с479169 0.0 1011376
15:00−13с488963 0.0 1012492
18:00−17с349581 0.0 101459
21:00−19с339753 0.0 101738
1 марта, пн
пн100:00−21с23970 0.0 101830
03:00−22с23970 0.0 102025
06:00−23с22980 0.0 102120
09:00−19сз11930 0.0 1022101
12:00−13з238649 0.0 1021358
15:00−10юз349074 0.0 1020429
18:00−12ююз4896100 0.0 1017216
21:00−12ююз4896100 0.1 1015273
2 марта, вт
вт200:00−10ююз51195100 0.2 1011369
03:00−7ююз61294100 1.3 1006527
06:00−5ююз61295100 1.5 1002536
09:00−1ююз5997100 2.8 999502
12:000з47100100 0.9 997475
15:000з36100100 1.3 997407
18:000сз51198100 1.4 998684
21:00−3сз499199 1.9 999256
3 марта, ср
ср300:00−6сз379550 0.0 1000156
03:00−7сз349751 0.0 100175
06:00−7сз3697100 0.0 1001129
09:00−4ссз3695100 0.5 1003333
12:00−2ссз5991100 0.2 1005806
15:00−4ссз61082100 0.4 1006918
18:00−7сз411892 0.0 1008297
21:00−8сз5129229 0.0 1010474
4 марта, чт
чт400:00−10сз489587 0.0 1010218
03:00−11зсз489679 0.1 1011225
06:00−14зсз369778 0.0 1012103
09:00−11з369575 0.0 1012221
12:00−6юз479087 0.0 1010412
15:00−4юз6109176 0.0 1008649
18:00−4юз61292100 0.1 1005735
21:00−2юз71391100 0.2 1003768